Flag for Germany Weather past 2 weeks in Meppen, Lower Saxony, Germany

Now
60 °F

Fog.


Feels Like: 60 °F
Forecast: 62 / 80 °F
Wind: 2 mph from North

Location: Meppen

Current Time: Jul 28, 2014 at 6:44:18 AM

Latest Report: Jul 28, 2014 at 6:00 AM


Visibility: 0 mi

Pressure: 29.96 "Hg

Humidity: 94%

Dew point: 58 °F

Location of MeppenLocation

Historic Weather in Meppen — Graph

°F

Meppen temperature yesterday

Maximum temperature yesterday: 75 °F (at 1:00 PM)
Minimum temperature yesterday: 60 °F (at 4:00 AM)
Average temperature yesterday: 68 °F

Past Weeks' High & Low Weather Summary

 TemperatureHumidityPressure
High93 °F (Jul 19, 4:00 PM)95% (Jul 16, 7:00 AM)30.20 "Hg (Jul 16, 7:00 AM)
Low53 °F (Jul 16, 6:00 AM)22% (Jul 19, 3:00 PM)29.76 "Hg (Jul 20, 6:00 PM)
Average69 °F71%30.01 "Hg
* Reported Jul 14 7:00 AM — Jul 28 4:00 AM, Meppen, Weather by CustomWeather, © 2014

Note: Actual official high and low records may vary slightly from our data, if they occured in-between our weather recording intervals... More about our weather records

Advertising

Meppen weather history for previous 24 hours

 ConditionsComfort  
Time TempWeatherWind HumidityBarometerVisibility
4:00 AM
Jul 28
59 °FCool.2 mph94%29.97 "Hg0 mi
3:00 AM60 °FCool.N/A94%29.97 "Hg0 mi
2:00 AMN/APassing clouds.No windN/AN/A6 mi
1:00 AM62 °FMild.2 mph92%29.99 "Hg1 mi
12:00 AM61 °FCool.2 mph92%30.00 "Hg5 mi
10:00 PM
Jul 27
68 °FMild.3 mph83%30.00 "Hg6 mi
9:00 PM70 °FMild.N/A90%29.98 "Hg3 mi
7:00 PM74 °FMild.2 mph73%29.96 "Hg5 mi
6:00 PM74 °FMild.N/A78%29.96 "Hg4 mi
4:00 PM74 °FMild.2 mph77%29.97 "Hg4 mi
3:00 PM73 °FMild.5 mph74%29.98 "Hg3 mi
2:00 PM75 °FMild.2 mph68%29.98 "Hg3 mi
1:00 PM75 °FMild.3 mph65%29.97 "Hg4 mi
12:00 PM71 °FMild.3 mph79%29.98 "Hg4 mi
10:00 AM65 °FMild.3 mph95%29.97 "Hg2 mi
9:00 AM65 °FMild.3 mph95%29.96 "Hg1 mi
8:00 AM64 °FMild.2 mph95%29.96 "Hg0 mi
7:00 AM63 °FMild.2 mph95%29.95 "Hg0 mi
6:00 AM63 °FMild.2 mph94%29.94 "Hg0 mi
Weather by CustomWeather, © 2014

See weather overviewHow to use our weather pages